Погода в Лапине

Россия / Смоленская область     54°25′02″N   33°08′19″E
темп.,
°C
ветер,
м/с
пор.,
м/с
влажн.,
%
обл.,
%
осадки,
мм/ч
давл.,
гПа
погр.,
м
19 апреля, пн
пн1900:00+4всв289491 0.0 1021338
03:00+5св478686 0.0 1022287
06:00+5св41091100 0.0 1021473
09:00+6всв51088100 0.0 1022800
12:00+7св5987100 0.1 1022856
15:00+6всв5888100 0.1 1022888
18:00+6всв5987100 0.1 1022705
21:00+6всв4987100 0.1 1022986
20 апреля, вт
вт2000:00+5всв5991100 0.1 1021712
03:00+4св5992100 0.2 1020686
06:00+3св5893100 0.1 1019698
09:00+2св4998100 0.3 1018474
12:00+2св4998100 0.4 1017476
15:00+3всв5898100 0.5 1015445
18:00+3св41097100 0.1 1013464
21:00+3св4997100 0.1 1011535
21 апреля, ср
ср2100:00+2ссв51097100 0.1 1007591
03:00+2с4998100 1.6 1005426
06:00+1ссз4898100 0.9 1003341
09:00+2зсз4899100 1.6 1003396
12:00+3з5989100 0.1 1004911
15:00+5зюз5985100 0.3 1006989
18:00+4зюз51087100 0.1 1008694
21:00+3зюз499085 0.1 1010457
22 апреля, чт
чт2200:00+3ююз279592 0.1 1011268
03:00+3ююз4992100 0.1 1011281
06:00+2ююз41189100 0.0 1012259
09:00+6ююз587879 0.0 1013330
12:00+11ююз586633 0.1 10131145
15:00+13ююз585662 0.8 10121670
18:00+12ююз5965100 0.6 1012601
21:00+8ююз378981 0.7 1014127
23 апреля, пт
пт2300:00+7зюз1296100 0.3 101421
03:00+7ююв2297100 0.8 101460
06:00+7ююв2596100 0.1 1013185
09:00+9ююв5989100 0.3 1011610
12:00+11ю61281100 0.8 10101395
15:00+3з61295100 1.5 1011576
18:00+4зюз378870 0.8 1012608
21:00+4ююз368892 0.9 1013137